This is the latest recevied weather packets stored in our database for station/object PD2BVG. If no packets are shown the sender has not sent any weather packets the latest 1 day(s).
| Time | Temp. | Humidity | Pressure | Rain* | Wind** | Luminosity | Snow |
|---|---|---|---|---|---|---|---|
| 1778013975 | 11.11° C | 82% | 1011.2 hPa | 0 mm | 3.58 m/s, 336° | 0 W/m² | - |
| 1778013915 | 11.11° C | 82% | 1011.3 hPa | 0 mm | 3.13 m/s, 334° | 0 W/m² | - |
| 1778013853 | 11.11° C | 82% | 1011.3 hPa | 0 mm | 3.58 m/s, 343° | 0 W/m² | - |
| 1778013794 | 11.11° C | 82% | 1011.3 hPa | 0 mm | 3.58 m/s, 6° | 0 W/m² | - |
| 1778013733 | 11.11° C | 82% | 1011.2 hPa | 0 mm | 4.02 m/s, 354° | 0 W/m² | - |
| 1778013672 | 11.11° C | 82% | 1011.1 hPa | 0 mm | 4.47 m/s, 7° | 0 W/m² | - |
| 1778013609 | 11.11° C | 82% | 1011.2 hPa | 0 mm | 4.47 m/s, 4° | 0 W/m² | - |
| 1778013550 | 11.11° C | 82% | 1011.2 hPa | 0 mm | 3.58 m/s, 330° | 0 W/m² | - |
| 1778013483 | 11.11° C | 82% | 1011.2 hPa | 0 mm | 3.58 m/s, 1° | 0 W/m² | - |
| 1778013422 | 11.11° C | 82% | 1011.2 hPa | 0 mm | 4.47 m/s, 355° | 0 W/m² | - |
| 1778013362 | 11.11° C | 82% | 1011.2 hPa | 0 mm | 4.92 m/s, 0° | 0 W/m² | - |
| 1778013300 | 11.11° C | 82% | 1011.2 hPa | 0 mm | 4.47 m/s, 343° | 0 W/m² | - |
| 1778013240 | 11.11° C | 82% | 1011.2 hPa | 0 mm | 4.02 m/s, 0° | 0 W/m² | - |
| 1778013180 | 11.11° C | 82% | 1011.2 hPa | 0 mm | 4.02 m/s, 355° | 0 W/m² | - |
| 1778013118 | 11.11° C | 82% | 1011.2 hPa | 0 mm | 3.58 m/s, 348° | 0 W/m² | - |
| 1778013059 | 11.11° C | 82% | 1011.2 hPa | 0 mm | 4.47 m/s, 30° | 0 W/m² | - |
| 1778012998 | 11.11° C | 82% | 1011.2 hPa | 0 mm | 4.47 m/s, 337° | 0 W/m² | - |
| 1778012940 | 11.11° C | 82% | 1011.1 hPa | 0 mm | 4.47 m/s, 0° | 0 W/m² | - |
| 1778012880 | 11.11° C | 82% | 1011.2 hPa | 0 mm | 4.47 m/s, 358° | 0 W/m² | - |
| 1778012813 | 11.11° C | 82% | 1011.1 hPa | 0 mm | 4.47 m/s, 0° | 0 W/m² | - |
| 1778012749 | 11.11° C | 82% | 1011.1 hPa | 0 mm | 4.02 m/s, 0° | 0 W/m² | - |
| 1778012688 | 11.11° C | 82% | 1011.2 hPa | 0 mm | 4.47 m/s, 347° | 0 W/m² | - |
| 1778012628 | 11.11° C | 82% | 1011.2 hPa | 0 mm | 4.92 m/s, 357° | 0 W/m² | - |
| 1778012565 | 11.11° C | 82% | 1011.1 hPa | 0 mm | 4.02 m/s, 343° | 0 W/m² | - |
| 1778012505 | 11.11° C | 82% | 1011.1 hPa | 0 mm | 4.02 m/s, 11° | 0 W/m² | - |
* Rain latest hour (hover to see other rain measurements)
** Current wind speed in m/s (hover to see current wind gust speed)